Regional Weather Roundup
Issued by NWS

Home | Current Version | Previous Version | Text Only | Print | Product List | Glossary On
Versions: 1 2 3 4 5 6 7 8 9 10 11 12 13 14 15 16 17 18 19 20 21 22 23 24 25 26 27 28 29 30 31 32 33 34 35 36 37 38 39 40 41 42 43 44 45 46 47 48 49 50
000
ASUS43 KLSX 251957
RWRMO

WEATHER SUMMARY FOR MISSOURI
NATIONAL WEATHER SERVICE SPRINGFIELD MO
300 PM CDT TUE JUL 25 2017

NOTE: "FAIR" INDICATES FEW OR NO CLOUDS BELOW 12,000 FEET WITH NO
       SIGNIFICANT WEATHER AND/OR OBSTRUCTIONS TO VISIBILITY.
       CURRENT SKY AND/OR WEATHER CONDITIONS ARE NOT AVAILABLE FOR
       CHILLICOTHE AND FARMINGTON.

MOZ001>031-035>038-043-044-053-054-252100-
...NORTHERN AND WESTERN MISSOURI...

CITY           SKY/WX    TMP DP  RH WIND       PRES   REMARKS
KANSAS CTY INT MOSUNNY   94  72  48 SW9       30.05F HX 102
LEE`S SUMMIT   PTSUNNY   91  76  61 SE7       30.07F HX 103
ST JOSEPH      SUNNY     92  75  57 S9        30.04S HX 103
CHILLICOTHE      N/A     89  76  65 SE5       30.07F HX 100

$$
MOZ066>068-077>081-088>096-101>105-252100-
...SOUTHWEST MISSOURI...

CITY           SKY/WX    TMP DP  RH WIND       PRES   REMARKS
SPRINGFIELD    SUNNY     96  68  39 CALM      30.07F HX 101
JOPLIN         MOSUNNY   98  72  42 S9        30.07S HX 107

$$
MOZ032>034-039>042-045>050-055>058-069>072-252100-
...CENTRAL MISSOURI...

CITY           SKY/WX    TMP DP  RH WIND       PRES   REMARKS
COLUMBIA       NOT AVBL
JEFFERSON CITY SUNNY     90  70  51 SE12      30.06F HX  95
ROLLA          SUNNY     92  67  43 VRB5      30.10S HX  95
SEDALIA        SUNNY     92  77  61 E7        30.09F HX 105
WARRENSBURG    SUNNY     91  70  49 CALM      30.06F HX  97

$$
MOZ051-052-059>065-252100-
...EAST CENTRAL MISSOURI...

CITY           SKY/WX    TMP DP  RH WIND       PRES   REMARKS
ST LOUIS INTL  MOSUNNY   93  71  48 E10       30.09F HX 100

$$
MOZ072>076-082>087-097>100-106>115-252100-
...SOUTH CENTRAL AND SOUTHEAST MISSOURI...

CITY           SKY/WX    TMP DP  RH WIND       PRES   REMARKS
CAPE GIRARDEAU PTSUNNY   84  74  71 SE8       30.07R HX  91
POPLAR BLUFF   MOSUNNY   93  77  59 SW9       30.04S HX 107
WEST PLAINS    MOSUNNY   93  67  42 SW7       30.10S HX  96

$$


USA.gov is the U.S. government's official web portal to all federal, state and local government web resources and services.